Nashua, NH

4:12 AM EDT on April 21, 2018 (GMT -0400)
Boire

Weather History for KASH - September, 2013

Change the Weather History Date:

Friday, September 27, 2013

  Actual Average Record
Temperature  
Mean Temperature 58 °F -  
Max Temperature 66 °F 68 °F 88 °F (2017)
Min Temperature 50 °F 45 °F 29 °F (1951)
Degree Days  
Heating Degree Days 7    
Growing Degree Days 8 (Base 50)    
Moisture  
Dew Point 50 °F    
Average Humidity 72    
Maximum Humidity 93    
Minimum Humidity 54    
Precipitation  
Precipitation 0.00 in - - ()
Sea Level Pressure  
Sea Level Pressure 30.90 in    
Wind  
Wind Speed 4 mph (North)    
Max Wind Speed 7 mph    
Max Gust Speed -    
Visibility 10 miles    
Events      
Averages and records for this station are not official NWS values.
T = Trace of Precipitation, MM = Missing Value Source: NWS Daily Summary

Daily Weather History Graph

Daily Weather History Graph

Search for Another Location

Airport or City:

Astronomy

Sep. 27, 2013 Rise Set
Actual Time 6:39 AM EDT 6:34 PM EDT
Civil Twilight 6:10 AM EDT 7:02 PM EDT
Nautical Twilight 5:37 AM EDT 7:35 PM EDT
Astronomical Twilight 5:04 AM EDT 8:08 PM EDT
Moon No Moon Rise 2:17 PM EDT (9/27)
Length of Visible Light 12h 51m
Length of Day
11h 54m
Last Quarter, 45% of the Moon is Illuminated
Sep 27
Last Quarter
Oct 4
New
Oct 11
First Quarter
Oct 18
Full
Oct 26
Last Quarter

Hourly Weather History & Observations

Time (EDT) Temp. Dew Point Humidity Pressure Visibility Wind Dir Wind Speed Gust Speed Precip Events Conditions
12:51 AM 57.9 °F 48.9 °F 72% 30.89 in 10.0 mi Variable 3.5 mph - N/A   Mostly Cloudy
1:51 AM 56.8 °F 48.9 °F 75% 30.90 in 10.0 mi NNE 3.5 mph - N/A   Mostly Cloudy
2:51 AM 56.8 °F 48.9 °F 75% 30.89 in 10.0 mi NNW 3.5 mph - N/A   Overcast
3:51 AM 56.8 °F 48.9 °F 75% 30.89 in 10.0 mi North 3.5 mph - N/A   Overcast
4:51 AM 56.8 °F 48.9 °F 75% 30.90 in 10.0 mi NNW 6.9 mph - N/A   Overcast
5:51 AM 56.8 °F 48.9 °F 75% 30.92 in 10.0 mi NNW 5.8 mph - N/A   Overcast
6:51 AM 56.8 °F 50.0 °F 78% 30.94 in 10.0 mi NNW 6.9 mph - N/A   Overcast
7:51 AM 56.8 °F 50.0 °F 78% 30.96 in 10.0 mi NW 4.6 mph - N/A   Overcast
8:51 AM 56.8 °F 50.0 °F 78% 30.97 in 10.0 mi North 5.8 mph - N/A   Overcast
9:51 AM 57.9 °F 50.0 °F 75% 30.99 in 10.0 mi North 5.8 mph - N/A   Overcast
10:51 AM 61.0 °F 50.0 °F 67% 30.99 in 10.0 mi Calm Calm - N/A   Overcast
11:51 AM 63.0 °F 48.9 °F 60% 30.99 in 10.0 mi Variable 4.6 mph - N/A   Overcast
12:51 PM 63.9 °F 50.0 °F 61% 30.98 in 10.0 mi NNE 6.9 mph - N/A   Overcast
12:58 PM 64.4 °F 50.0 °F 59% 30.24 in 10.0 mi North 6.9 mph - N/A   Overcast
1:05 PM 64.4 °F 50.0 °F 59% 30.24 in 10.0 mi North 5.8 mph - N/A   Overcast
1:51 PM 63.9 °F 50.9 °F 63% 30.97 in 10.0 mi North 3.5 mph - N/A   Overcast
2:51 PM 65.8 °F 50.9 °F 58% 30.96 in 10.0 mi North 5.8 mph - N/A   Mostly Cloudy
3:51 PM 65.8 °F 50.0 °F 57% 30.95 in 10.0 mi Variable 3.5 mph - N/A   Scattered Clouds
4:51 PM 66.9 °F 50.0 °F 54% 30.95 in 10.0 mi North 3.5 mph - N/A   Scattered Clouds
5:51 PM 65.8 °F 48.9 °F 54% 30.95 in 10.0 mi Calm Calm - N/A   Partly Cloudy
6:51 PM 59.0 °F 52.0 °F 78% 30.97 in 10.0 mi Calm Calm - N/A   Clear
7:51 PM 55.9 °F 52.9 °F 89% 30.98 in 10.0 mi Calm Calm - N/A   Clear
8:51 PM 54.9 °F 52.0 °F 90% 31.00 in 10.0 mi Calm Calm - N/A   Clear
9:51 PM 52.9 °F 50.9 °F 93% 31.01 in 10.0 mi Calm Calm - N/A   Clear
10:51 PM 50.9 °F 48.9 °F 93% 31.02 in 10.0 mi Calm Calm - N/A   Clear
11:51 PM 50.9 °F 48.9 °F 93% 31.02 in 10.0 mi Calm Calm - N/A   Clear